[[{"header":{"parameterUnit":"m.s-1","parameterCategory":2,"la1":30.2991,"la2":30.254,"lo1":-89.0895,"lo2":-89.0444,"dy":0.0017,"dx":0.0017,"nx":28,"ny":28,"refTime":"2025-07-06T09:00:00:Z","depth":"0","parameterNumber":2,"parameterNumberName":"U-component_of_CURRENTS"},"data":[0,0,0,0,0,0,0,0,0,0,0,0,0,0,0,0,0,0,0,0,0,0,0,0,0,0,0,0,0,0,0,0,0,0,0,0,0,0,0,0,0,0,0,0,0,0,0,0,0,0,0,0,0,0,0,0,0,0,0.2234,0.2233,0,0.2147,0.2146,0.2144,0.2054,0.2054,0.2053,0.2052,0.2059,0.206,0.206,0,0,0,0,0,0,0,0,0,0,0,0,0,0.2309,0.2308,0.2234,0.2233,0.2232,0.2147,0.2146,0.2144,0.2055,0.2053,0.2052,0.2051,0.2058,0.2059,0.2061,0,0,0,0,0,0,0,0,0,0,0,0,0,0.2251,0.2307,0.2234,0.218,0.2175,0.2147,0.2145,0.2144,0.2055,0.2053,0.2052,0.2051,0.2058,0.2059,0.2061,0.2095,0,0,0.2065,0.2066,0,0,0,0,0,0,0,0,0.2254,0.2248,0.2189,0.2184,0.2178,0.2114,0.2175,0.2134,0.2055,0.2096,0.2052,0.205,0.209,0.2088,0.2067,0.2096,0.2096,0.2065,0.2066,0.2067,0.2067,0,0,0,0,0,0,0,0.2258,0.2251,0.2195,0.2189,0.2182,0.2157,0.2147,0.2166,0.21,0.2092,0.2087,0.2084,0.2086,0.2066,0.2067,0.2096,0.2065,0.2067,0.2068,0.2068,0.224,0.2244,0,0,0,0,0,0,0.2279,0.2255,0.2198,0.2193,0.2218,0.2157,0.2145,0.2132,0.2097,0.2091,0.2085,0.208,0.2064,0.2066,0.2067,0.2164,0.2067,0.2068,0.2069,0.2237,0.2241,0.2245,0,0,0,0,0,0,0.2281,0.2275,0.2201,0.2226,0.2215,0.2157,0.2143,0.2131,0.2117,0.2091,0.2086,0.2085,0.2063,0.2065,0.2109,0.2162,0.2069,0.207,0.2232,0.2238,0.2243,0.2323,0,0,0,0,0,0,0.2283,0.2276,0.2274,0.2227,0.2215,0.2207,0.2145,0.2131,0.2119,0.2112,0.209,0.2088,0.2062,0.2107,0.2111,0.2162,0.2071,0.2228,0.2235,0.2242,0.2315,0.233,0.2343,0,0,0,0,0,0.2286,0.2287,0.2274,0.2267,0.2213,0.2209,0.2201,0.2152,0.2121,0.2131,0.2121,0.2089,0.2154,0.2111,0.2114,0.2168,0.2224,0.2233,0.2241,0.2309,0.2327,0.2343,0,0,0,0,0,0,0.2315,0.2277,0.2261,0.2249,0.2244,0.2195,0.219,0.2168,0.2162,0.2152,0.2126,0.2126,0.2189,0.2179,0.2132,0.2245,0.2189,0.2199,0.224,0.2257,0.2271,0.2265,0.2073,0,0,0,0,0,0.2326,0.2316,0.229,0.2286,0.2281,0.2243,0.2233,0.2207,0.2195,0.2187,0.2177,0.2187,0.2226,0.2239,0.2262,0.2317,0.2331,0.2361,0.2375,0.2386,0.2389,0.2515,0.2539,0.2273,0.2273,0.2272,0,0,0.2335,0.2316,0.2309,0.2293,0.2272,0.228,0.2232,0.2225,0.2241,0.2196,0.2217,0.2235,0.2255,0.2315,0.2344,0.231,0.2462,0.2397,0.2406,0.2402,0.2526,0.2552,0.2575,0.2278,0.2277,0.2276,0,0,0.2356,0.2335,0.2335,0.2338,0.2325,0.2311,0.2321,0.2292,0.2286,0.2319,0.2307,0.2357,0.2388,0.2418,0.2439,0.2551,0.2536,0.2569,0.2624,0.2747,0.2769,0.2789,0.2795,0.2815,0.257,0.257,0.257,0,0.2374,0.2364,0.2341,0.2351,0.2358,0.2334,0.2352,0.2353,0.2349,0.2371,0.2341,0.2435,0.2439,0.2544,0.2572,0.258,0.2614,0.255,0.2763,0.2784,0.2803,0.2804,0.2826,0.2575,0.2574,0.2574,0.2573,0,0.2392,0.2395,0.24,0.2404,0.2417,0.2429,0.2435,0.2454,0.2449,0.2458,0.2549,0.2567,0.2624,0.2648,0.2633,0.2784,0.2748,0.2769,0.2712,0.2834,0.2828,0.2848,0.2582,0.258,0.2579,0.2578,0,0,0.2405,0.241,0.2414,0.2426,0.2444,0.2454,0.2502,0.2545,0.2584,0.2611,0.2684,0.2753,0.2765,0.2793,0.2808,0.2896,0.3031,0.2887,0.2892,0.2874,0.3238,0.3038,0.304,0.3108,0.3114,0.3118,0.316,0,0.2428,0.2454,0.2456,0.2498,0.2512,0.2527,0.2575,0.2618,0.2653,0.2722,0.278,0.2854,0.2825,0.2863,0.2958,0.3028,0.3098,0.3012,0.3138,0.3139,0.2935,0.3063,0.2879,0.2889,0.318,0.3183,0.3186,0,0.2441,0.2459,0.2496,0.2539,0.2547,0.2577,0.2651,0.2692,0.2792,0.2824,0.2918,0.2959,0.3082,0.3048,0.3225,0.318,0.3213,0.3249,0.3253,0.3055,0.2981,0.2828,0.2915,0.2862,0.3217,0.3214,0.3212,0,0.2451,0.2487,0.2517,0.2532,0.2581,0.261,0.2643,0.2725,0.278,0.2902,0.2962,0.3101,0.3166,0.3288,0.3324,0.3312,0.3493,0.349,0.3328,0.331,0.3166,0.3126,0.3202,0.3628,0.3628,0.3628,0.3628,0,0.2474,0.2496,0.2519,0.2541,0.2593,0.2618,0.2695,0.2747,0.2846,0.2936,0.3019,0.3106,0.3244,0.3341,0.3386,0.3393,0.3549,0.3347,0.3338,0.3179,0.3141,0.3095,0.3076,0.3629,0.3629,0.3629,0.3629,0,0.248,0.2495,0.2536,0.2584,0.2598,0.2639,0.2715,0.278,0.2857,0.2984,0.3032,0.315,0.3249,0.3329,0.3483,0.3428,0.3365,0.3442,0.3169,0.3125,0.287,0.286,0.2738,0.2687,0.3274,0.327,0.3266,0,0.2476,0.2496,0.2561,0.2603,0.2627,0.2679,0.2727,0.279,0.2858,0.3001,0.3068,0.317,0.3207,0.3282,0.3238,0.3239,0.3222,0.3041,0.2983,0.2835,0.2824,0.2698,0.266,0.2814,0.2807,0.2801,0.2796,0,0.2483,0.2512,0.2565,0.2649,0.2701,0.2732,0.2792,0.2827,0.2915,0.2981,0.3043,0.3067,0.3079,0.2957,0.2906,0.2899,0.2854,0.2915,0.2909,0.2577,0.2311,0.2261,0.2733,0.2745,0.2751,0.2754,0.2757,0.2759,0.2491,0.2547,0.2629,0.2698,0.2748,0.2748,0.2721,0.277,0.2795,0.2809,0.2928,0.2859,0.2775,0.264,0.2605,0.2398,0.2459,0.2317,0.2345,0.2251,0.2119,0.239,0.2302,0.2304,0.2306,0.2308,0.231,0,0.2505,0.2581,0.2668,0.2721,0.2724,0.2745,0.2738,0.2658,0.2595,0.2634,0.2616,0.2472,0.2304,0.2234,0.2021,0.188,0.1812,0.1844,0.1714,0.1736,0.2121,0.202,0.1689,0.169,0.169,0.169,0.169,0.169,0.2527,0.2621,0.2667,0.2664,0.2667,0.256,0.2498,0.2386,0.2338,0.2171,0.2051,0.2042,0.2007,0.1836,0.1645,0.1595,0.1519,0.132,0.1444,0.1798,0.1847,0.1894,0.1799,0.1428,0.1428,0.0954,0.0951,0.0948]},{"header":{"parameterUnit":"m.s-1","parameterCategory":2,"la1":30.2991,"la2":30.254,"lo1":-89.0895,"lo2":-89.0444,"dy":0.0017,"dx":0.0017,"nx":28,"ny":28,"refTime":"2025-07-06T09:00:00:Z","depth":"0","parameterNumber":3,"parameterNumberName":"V-component_of_CURRENTS"},"data":[0,0,0,0,0,0,0,0,0,0,0,0,0,0,0,0,0,0,0,0,0,0,0,0,0,0,0,0,0,0,0,0,0,0,0,0,0,0,0,0,0,0,0,0,0,0,0,0,0,0,0,0,0,0,0,0,0,0,0.0328,0.0327,0,0.0303,0.0303,0.0302,0.0286,0.0286,0.0286,0.0286,0.0347,0.0349,0.035,0,0,0,0,0,0,0,0,0,0,0,0,0,0.0328,0.0328,0.0328,0.0327,0.0327,0.0303,0.0303,0.0302,0.0286,0.0286,0.0286,0.0286,0.0346,0.0348,0.0351,0,0,0,0,0,0,0,0,0,0,0,0,0,0.0319,0.0328,0.0328,0.0315,0.0314,0.0303,0.0303,0.0302,0.0287,0.0286,0.0286,0.0286,0.0346,0.0348,0.0351,0.0373,0,0,0.0359,0.036,0,0,0,0,0,0,0,0,0.032,0.0319,0.0318,0.0316,0.0314,0.0297,0.0325,0.033,0.0287,0.0298,0.0286,0.0286,0.0338,0.0341,0.0337,0.0376,0.0379,0.0359,0.0361,0.0362,0.0363,0,0,0,0,0,0,0,0.032,0.032,0.0319,0.0317,0.0315,0.0299,0.0298,0.0325,0.0322,0.0297,0.0296,0.0291,0.0337,0.0334,0.0339,0.038,0.0359,0.0362,0.0363,0.0364,0.0502,0.0503,0,0,0,0,0,0,0.0323,0.0321,0.032,0.0318,0.0315,0.03,0.0298,0.0303,0.032,0.0321,0.0291,0.0291,0.033,0.0335,0.0341,0.043,0.0362,0.0365,0.0366,0.05,0.0502,0.0504,0,0,0,0,0,0,0.0324,0.0324,0.0321,0.0317,0.0316,0.03,0.0306,0.0303,0.0298,0.0315,0.0318,0.0289,0.033,0.0337,0.0379,0.043,0.0366,0.0368,0.0497,0.05,0.0503,0.057,0,0,0,0,0,0,0.0324,0.0325,0.0329,0.0318,0.0316,0.0325,0.0306,0.0303,0.0295,0.0294,0.0314,0.0319,0.033,0.0375,0.0381,0.0433,0.037,0.0495,0.0499,0.0502,0.0566,0.0575,0.0584,0,0,0,0,0,0.0324,0.0335,0.033,0.0329,0.0323,0.0326,0.0324,0.0312,0.0296,0.0304,0.032,0.0318,0.0404,0.0378,0.0386,0.0439,0.0493,0.0497,0.0502,0.0562,0.0573,0.0583,0,0,0,0,0,0,0.0334,0.0334,0.0328,0.0337,0.0335,0.0323,0.0326,0.0312,0.0326,0.0329,0.0337,0.0345,0.0402,0.0409,0.038,0.049,0.0451,0.0458,0.0494,0.0506,0.0515,0.0526,0.0373,0,0,0,0,0,0.0339,0.0351,0.0344,0.0352,0.0352,0.0337,0.0334,0.0328,0.0336,0.0339,0.0353,0.0381,0.0427,0.0453,0.0483,0.0541,0.0537,0.0582,0.0591,0.0599,0.0615,0.0667,0.0682,0.0519,0.0519,0.0519,0,0,0.0342,0.0345,0.035,0.0355,0.0351,0.0372,0.0336,0.0339,0.0367,0.0348,0.0392,0.0407,0.0446,0.0513,0.0541,0.0527,0.0636,0.0605,0.0611,0.0623,0.0673,0.0689,0.0703,0.0522,0.0522,0.0521,0,0,0.0363,0.0362,0.038,0.0388,0.039,0.0391,0.0393,0.0388,0.0398,0.0435,0.0441,0.0486,0.0534,0.0584,0.0615,0.0692,0.0675,0.0701,0.0769,0.0819,0.0833,0.0845,0.0824,0.0834,0.0715,0.0715,0.0715,0,0.0367,0.0394,0.0385,0.041,0.0426,0.0405,0.0435,0.0449,0.046,0.0489,0.0462,0.0561,0.0578,0.0691,0.0716,0.0716,0.0713,0.0723,0.0831,0.0843,0.0855,0.0831,0.0841,0.0719,0.0718,0.0718,0.0718,0,0.0406,0.0429,0.0442,0.0477,0.0493,0.0514,0.0533,0.0558,0.0561,0.0577,0.066,0.0684,0.0749,0.0765,0.0764,0.087,0.0828,0.0827,0.0801,0.0875,0.0845,0.0854,0.0724,0.0723,0.0722,0.0721,0,0,0.0415,0.0461,0.0467,0.0498,0.0532,0.0551,0.0614,0.0669,0.0724,0.0741,0.0824,0.0886,0.0887,0.0922,0.0933,0.0975,0.1029,0.0938,0.0939,0.0911,0.1093,0.1031,0.1034,0.105,0.1053,0.1055,0.1024,0,0.0451,0.0509,0.0529,0.0597,0.063,0.0655,0.0719,0.077,0.081,0.0885,0.0927,0.1002,0.0955,0.0994,0.1033,0.1042,0.1063,0.1034,0.103,0.1029,0.0963,0.1048,0.1014,0.0984,0.1033,0.1035,0.1036,0,0.0489,0.0525,0.059,0.0669,0.0687,0.0729,0.0834,0.0889,0.0992,0.1027,0.1104,0.1128,0.1208,0.1151,0.1196,0.1179,0.1141,0.1126,0.1125,0.1057,0.0988,0.0927,0.0998,0.0998,0.105,0.1048,0.1047,0,0.0506,0.0574,0.0629,0.0653,0.0735,0.0781,0.0832,0.093,0.1007,0.1122,0.1191,0.1266,0.1315,0.1312,0.1263,0.1243,0.1285,0.1254,0.1154,0.1145,0.1113,0.1097,0.1185,0.1284,0.1284,0.1284,0.1284,0,0.0548,0.0595,0.0636,0.0671,0.0752,0.08,0.0911,0.0974,0.11,0.122,0.1261,0.1361,0.1362,0.1382,0.1318,0.1262,0.1325,0.1182,0.116,0.1129,0.1116,0.1108,0.1085,0.1283,0.1283,0.1283,0.1283,0,0.0577,0.0601,0.0667,0.0738,0.0762,0.0822,0.0948,0.1049,0.1139,0.1303,0.1351,0.1448,0.147,0.1431,0.1418,0.1328,0.1261,0.1235,0.1159,0.1129,0.1027,0.1007,0.101,0.105,0.1131,0.113,0.1129,0,0.0602,0.0632,0.07,0.0746,0.0782,0.087,0.0956,0.106,0.118,0.136,0.1458,0.1519,0.158,0.1503,0.137,0.1246,0.123,0.1117,0.1087,0.1042,0.1004,0.0973,0.1007,0.1044,0.1043,0.1041,0.104,0,0.065,0.0664,0.0719,0.0802,0.088,0.0981,0.1105,0.1195,0.1351,0.1475,0.1626,0.1676,0.1599,0.1477,0.1292,0.1199,0.1112,0.1082,0.1096,0.1002,0.0921,0.094,0.0991,0.1028,0.1029,0.103,0.1031,0.1031,0.068,0.0724,0.0787,0.0873,0.0969,0.1097,0.118,0.1325,0.1485,0.1668,0.1714,0.1781,0.1599,0.1346,0.1226,0.0997,0.1017,0.0926,0.0915,0.0896,0.0927,0.0914,0.0895,0.0895,0.0896,0.0896,0.0896,0,0.0719,0.0774,0.0862,0.097,0.1086,0.1124,0.1295,0.1384,0.1549,0.1702,0.1802,0.1744,0.1523,0.1312,0.0981,0.086,0.0847,0.0816,0.0804,0.086,0.0903,0.0896,0.0806,0.0806,0.0806,0.0806,0.0806,0.0806,0.0744,0.0827,0.0876,0.1047,0.1133,0.1269,0.1355,0.147,0.1586,0.1715,0.1755,0.1795,0.1671,0.1113,0.0844,0.0795,0.0813,0.0705,0.0783,0.0826,0.0837,0.0848,0.0841,0.0742,0.0741,0.0762,0.0762,0.0762]}],[{"header":{"parameterUnit":"m.s-1","parameterCategory":2,"la1":30.2991,"la2":30.254,"lo1":-89.0895,"lo2":-89.0444,"dy":0.0017,"dx":0.0017,"nx":28,"ny":28,"refTime":"2025-07-06T09:00:00:Z","depth":"2","parameterNumber":2,"parameterNumberName":"U-component_of_CURRENTS"},"data":[0,0,0,0,0,0,0,0,0,0,0,0,0,0,0,0,0,0,0,0,0,0,0,0,0,0,0,0,0,0,0,0,0,0,0,0,0,0,0,0,0,0,0,0,0,0,0,0,0,0,0,0,0,0,0,0,0,0,0.2006,0.2006,0,0.1957,0.1956,0.1955,0.1904,0.1904,0.1903,0.1903,0.1913,0.1913,0.1914,0,0,0,0,0,0,0,0,0,0,0,0,0,0.2056,0.2055,0.2006,0.2006,0.2006,0.1957,0.1956,0.1955,0.1904,0.1904,0.1903,0.1902,0.1912,0.1913,0.1914,0,0,0,0,0,0,0,0,0,0,0,0,0,0.2021,0.2055,0.2006,0.1976,0.1972,0.1957,0.1956,0.1955,0.1904,0.1904,0.1903,0.1902,0.1912,0.1913,0.1914,0.1937,0,0,0.1918,0.1918,0,0,0,0,0,0,0,0,0.2023,0.2019,0.1981,0.1978,0.1974,0.1937,0.1977,0.1952,0.1905,0.1928,0.1903,0.1902,0.1928,0.1928,0.1917,0.1938,0.1938,0.1918,0.1918,0.1919,0.1919,0,0,0,0,0,0,0,0.2026,0.2021,0.1985,0.198,0.1976,0.1964,0.1958,0.1972,0.1933,0.1926,0.1923,0.192,0.1926,0.1916,0.1917,0.1938,0.1918,0.1919,0.1919,0.192,0.2069,0.2072,0,0,0,0,0,0,0.2037,0.2024,0.1986,0.1984,0.1999,0.1964,0.1957,0.1949,0.1931,0.1928,0.1921,0.1918,0.1914,0.1916,0.1917,0.2,0.1919,0.192,0.1921,0.2065,0.2069,0.2073,0,0,0,0,0,0,0.2038,0.2033,0.1989,0.2004,0.1998,0.1964,0.1955,0.1948,0.1947,0.1927,0.1924,0.1929,0.1914,0.1916,0.1952,0.1998,0.1921,0.1922,0.2062,0.2067,0.2071,0.2131,0,0,0,0,0,0,0.2039,0.2034,0.2039,0.2005,0.1997,0.1999,0.1955,0.1948,0.1947,0.1943,0.1933,0.1932,0.1913,0.1951,0.1953,0.1999,0.1922,0.2057,0.2064,0.207,0.2125,0.2137,0.2148,0,0,0,0,0,0.2041,0.2043,0.204,0.2036,0.2003,0.2,0.1996,0.1967,0.1949,0.1961,0.1958,0.1933,0.1992,0.1954,0.1956,0.2003,0.2054,0.2062,0.2069,0.212,0.2135,0.2148,0,0,0,0,0,0,0.2058,0.2038,0.2033,0.2027,0.2027,0.1993,0.1995,0.1982,0.1985,0.1983,0.1962,0.1962,0.2015,0.2011,0.1969,0.2071,0.2025,0.2034,0.2063,0.2077,0.2089,0.2098,0.1923,0,0,0,0,0,0.2069,0.2069,0.2055,0.2054,0.2055,0.2033,0.2029,0.2016,0.201,0.2008,0.2007,0.202,0.2048,0.2061,0.2081,0.2129,0.2141,0.2169,0.2181,0.219,0.2204,0.233,0.2353,0.2097,0.2097,0.2097,0,0,0.2075,0.2064,0.2064,0.2059,0.205,0.2058,0.2028,0.2031,0.2047,0.2014,0.2044,0.2058,0.2072,0.2124,0.2149,0.2124,0.2254,0.22,0.2207,0.2216,0.234,0.2365,0.2387,0.2102,0.2101,0.21,0,0,0.2088,0.208,0.2091,0.2094,0.2096,0.2085,0.2095,0.2086,0.2094,0.213,0.2119,0.2165,0.2193,0.2217,0.2231,0.2326,0.2312,0.2341,0.2401,0.2523,0.2545,0.2565,0.2532,0.2549,0.2346,0.2346,0.2346,0,0.2109,0.2104,0.2097,0.2109,0.2115,0.2103,0.2123,0.2131,0.214,0.2167,0.2154,0.2236,0.2241,0.2318,0.2349,0.235,0.2376,0.2336,0.2537,0.2558,0.2577,0.254,0.2557,0.235,0.2349,0.2349,0.2348,0,0.2118,0.2131,0.2136,0.2149,0.2161,0.2173,0.2186,0.2216,0.2228,0.2239,0.2326,0.2349,0.2402,0.242,0.2407,0.2548,0.25,0.2535,0.2495,0.2606,0.2558,0.2576,0.2355,0.2354,0.2352,0.2352,0,0,0.2129,0.2146,0.2148,0.217,0.2183,0.2194,0.224,0.2283,0.2321,0.2365,0.2438,0.2498,0.2522,0.2544,0.2556,0.2653,0.2771,0.2658,0.2663,0.2608,0.2951,0.2739,0.2736,0.2867,0.2872,0.2877,0.2831,0,0.2148,0.2178,0.218,0.2221,0.2244,0.2261,0.2307,0.2349,0.2383,0.2454,0.2516,0.2581,0.2566,0.2607,0.271,0.2771,0.2835,0.2773,0.2866,0.2865,0.2655,0.2758,0.2563,0.2496,0.2848,0.2851,0.2853,0,0.2156,0.2177,0.2218,0.2276,0.2288,0.2313,0.2384,0.2426,0.2514,0.2557,0.264,0.267,0.2785,0.2785,0.2936,0.2907,0.2939,0.2973,0.2973,0.2777,0.2691,0.2462,0.2513,0.2881,0.2879,0.2876,0.2875,0,0.216,0.2208,0.2243,0.2255,0.2312,0.2352,0.239,0.246,0.252,0.2627,0.2686,0.2799,0.2871,0.2984,0.3028,0.3012,0.3188,0.3167,0.2981,0.296,0.2809,0.2765,0.3303,0.3303,0.3303,0.3303,0.3303,0,0.2171,0.221,0.225,0.2264,0.2334,0.237,0.2452,0.2506,0.2607,0.2699,0.2748,0.2822,0.2951,0.3039,0.3079,0.3062,0.3228,0.2995,0.2973,0.2809,0.2769,0.3136,0.3117,0.3301,0.3302,0.3302,0.3302,0,0.218,0.2204,0.2255,0.2309,0.2337,0.2388,0.249,0.2558,0.2636,0.2765,0.2811,0.2883,0.2936,0.3004,0.314,0.308,0.3116,0.3075,0.2782,0.2725,0.2761,0.2747,0.2812,0.2805,0.2799,0.2795,0.279,0,0.2178,0.2196,0.2269,0.233,0.2363,0.2442,0.2511,0.2581,0.2641,0.2788,0.2847,0.2905,0.2898,0.2916,0.286,0.2816,0.2971,0.2586,0.2518,0.2759,0.2731,0.2725,0.2719,0.2305,0.2297,0.229,0.2285,0,0.2161,0.2193,0.2248,0.2351,0.2427,0.25,0.2582,0.2612,0.2715,0.2773,0.2797,0.2788,0.2742,0.2543,0.2471,0.244,0.2565,0.244,0.2888,0.2439,0.2273,0.2247,0.226,0.2229,0.2234,0.2238,0.2242,0.2244,0.2158,0.2208,0.2271,0.2395,0.2476,0.2523,0.2499,0.2547,0.2559,0.2546,0.2632,0.2494,0.2434,0.2113,0.2047,0.1974,0.2127,0.2042,0.2067,0.2098,0.2028,0.186,0.1716,0.1719,0.1721,0.1723,0.1725,0,0.2139,0.224,0.2322,0.241,0.246,0.2514,0.2524,0.2421,0.2325,0.2329,0.2248,0.1947,0.1764,0.1734,0.1518,0.1452,0.1505,0.1395,0.1486,0.1541,0.1591,0.1501,0.1046,0.1044,0.1042,0.104,0,0,0.2136,0.221,0.2266,0.2346,0.2422,0.2343,0.2303,0.2137,0.203,0.1811,0.1678,0.1669,0.168,0.1345,0.128,0.1144,0.1347,0.109,0.1638,0.1804,0.1851,0.1962,0.1884,0,0,0,0,0]},{"header":{"parameterUnit":"m.s-1","parameterCategory":2,"la1":30.2991,"la2":30.254,"lo1":-89.0895,"lo2":-89.0444,"dy":0.0017,"dx":0.0017,"nx":28,"ny":28,"refTime":"2025-07-06T09:00:00:Z","depth":"2","parameterNumber":3,"parameterNumberName":"V-component_of_CURRENTS"},"data":[0,0,0,0,0,0,0,0,0,0,0,0,0,0,0,0,0,0,0,0,0,0,0,0,0,0,0,0,0,0,0,0,0,0,0,0,0,0,0,0,0,0,0,0,0,0,0,0,0,0,0,0,0,0,0,0,0,0,0.015,0.015,0,0.0146,0.0146,0.0146,0.0152,0.0152,0.0152,0.0152,0.0204,0.0205,0.0206,0,0,0,0,0,0,0,0,0,0,0,0,0,0.0144,0.0144,0.015,0.015,0.015,0.0146,0.0146,0.0146,0.0152,0.0152,0.0152,0.0152,0.0203,0.0205,0.0206,0,0,0,0,0,0,0,0,0,0,0,0,0,0.0145,0.0144,0.015,0.0151,0.0151,0.0146,0.0146,0.0146,0.0152,0.0152,0.0152,0.0153,0.0203,0.0205,0.0206,0.0216,0,0,0.0212,0.0213,0,0,0,0,0,0,0,0,0.0145,0.0146,0.0151,0.0151,0.0151,0.0148,0.0162,0.0172,0.0152,0.0153,0.0152,0.0153,0.0189,0.0192,0.0193,0.0219,0.0221,0.0213,0.0214,0.0215,0.0215,0,0,0,0,0,0,0,0.0145,0.0146,0.015,0.0151,0.0151,0.0145,0.0146,0.0164,0.0173,0.0153,0.0153,0.015,0.019,0.0191,0.0194,0.0222,0.0213,0.0214,0.0215,0.0216,0.0311,0.0312,0,0,0,0,0,0,0.0143,0.0146,0.015,0.015,0.0146,0.0145,0.0146,0.015,0.0172,0.0174,0.015,0.0151,0.0187,0.0192,0.0196,0.0258,0.0215,0.0216,0.0218,0.0309,0.0311,0.0312,0,0,0,0,0,0,0.0143,0.0144,0.015,0.0146,0.0146,0.0145,0.015,0.015,0.0152,0.0168,0.0172,0.0152,0.0188,0.0193,0.0224,0.0258,0.0217,0.0219,0.0308,0.031,0.0312,0.0351,0,0,0,0,0,0,0.0143,0.0144,0.0151,0.0146,0.0146,0.0155,0.015,0.015,0.0149,0.015,0.0171,0.0176,0.0188,0.0221,0.0225,0.026,0.0221,0.0306,0.0309,0.0311,0.0348,0.0354,0.0359,0,0,0,0,0,0.0143,0.0152,0.0151,0.0152,0.0154,0.0156,0.0156,0.0156,0.0149,0.0157,0.0173,0.0175,0.0241,0.0223,0.0228,0.0265,0.0305,0.0308,0.0311,0.0345,0.0353,0.0359,0,0,0,0,0,0,0.0147,0.0153,0.0152,0.016,0.0161,0.0156,0.0162,0.0155,0.0171,0.0177,0.0186,0.0193,0.0231,0.0241,0.0221,0.03,0.0276,0.028,0.03,0.0307,0.0313,0.0332,0.0222,0,0,0,0,0,0.0151,0.0162,0.0161,0.0167,0.017,0.0164,0.0165,0.0165,0.0174,0.018,0.0195,0.022,0.0248,0.027,0.029,0.0332,0.0331,0.0361,0.0367,0.0371,0.0391,0.0445,0.0458,0.0322,0.0322,0.0322,0,0,0.0151,0.0156,0.0161,0.0169,0.017,0.0184,0.0166,0.0172,0.0194,0.0185,0.0224,0.0233,0.0259,0.0307,0.0327,0.0322,0.0396,0.0375,0.0379,0.0397,0.045,0.0463,0.0475,0.0324,0.0324,0.0324,0,0,0.0162,0.0165,0.0183,0.0188,0.0195,0.0197,0.0198,0.0202,0.0217,0.0248,0.0252,0.0283,0.0321,0.0354,0.0374,0.0424,0.0416,0.043,0.0488,0.054,0.0551,0.0562,0.0517,0.0524,0.0445,0.0445,0.0445,0,0.0166,0.0187,0.0186,0.0205,0.0216,0.0204,0.0228,0.0241,0.0256,0.0282,0.027,0.0341,0.0351,0.0424,0.0443,0.0439,0.0438,0.0458,0.0548,0.0559,0.0569,0.0521,0.0528,0.0447,0.0447,0.0447,0.0446,0,0.0189,0.021,0.022,0.0247,0.026,0.0274,0.0292,0.0318,0.0329,0.0341,0.0404,0.0423,0.0474,0.0478,0.0478,0.0562,0.0521,0.0538,0.053,0.0585,0.053,0.0536,0.045,0.045,0.0449,0.0448,0,0,0.0194,0.0232,0.0236,0.0265,0.0286,0.0302,0.035,0.0393,0.0438,0.0457,0.053,0.0563,0.0571,0.0596,0.0602,0.0645,0.0682,0.0631,0.0633,0.0583,0.0736,0.0657,0.0655,0.0727,0.073,0.0733,0.0646,0,0.0218,0.0263,0.0278,0.033,0.036,0.0381,0.0433,0.0472,0.0502,0.0569,0.06,0.0657,0.0618,0.0656,0.0695,0.0693,0.0712,0.07,0.0694,0.0692,0.0615,0.0666,0.0664,0.0585,0.0652,0.0653,0.0653,0,0.0246,0.0275,0.0326,0.0398,0.0415,0.0446,0.0533,0.0579,0.0658,0.0693,0.075,0.0763,0.0817,0.0796,0.081,0.0808,0.0784,0.0768,0.0765,0.0694,0.0629,0.0555,0.0594,0.0663,0.0663,0.0662,0.0661,0,0.0262,0.0318,0.0364,0.038,0.0451,0.0497,0.0544,0.0616,0.0687,0.0778,0.0842,0.0876,0.0926,0.0917,0.087,0.0854,0.0882,0.085,0.074,0.0729,0.0728,0.0714,0.0887,0.0887,0.0887,0.0888,0.0888,0,0.0291,0.0336,0.0376,0.0402,0.0478,0.0526,0.0625,0.0679,0.0792,0.0905,0.0914,0.1001,0.0976,0.0981,0.0914,0.0837,0.0911,0.0757,0.0731,0.0731,0.0719,0.0805,0.0796,0.0884,0.0885,0.0886,0.0886,0,0.0319,0.0341,0.0394,0.0458,0.0489,0.0544,0.0676,0.0762,0.0853,0.1012,0.1057,0.1107,0.1085,0.1018,0.0986,0.089,0.0824,0.0788,0.0735,0.0706,0.0603,0.0597,0.0617,0.0614,0.0611,0.0609,0.0607,0,0.0341,0.0366,0.0421,0.0464,0.0498,0.0593,0.0683,0.0786,0.0888,0.1081,0.1168,0.119,0.1212,0.1069,0.0923,0.0758,0.0784,0.0636,0.0612,0.0617,0.0589,0.0588,0.0586,0.0588,0.0586,0.0585,0.0584,0,0.0365,0.0373,0.0407,0.0485,0.0562,0.0686,0.0816,0.0901,0.1071,0.1185,0.1318,0.1344,0.1223,0.1041,0.0821,0.0718,0.0648,0.0595,0.0687,0.0655,0.0584,0.0558,0.0559,0.0571,0.0572,0.0573,0.0574,0.0574,0.0373,0.0387,0.0418,0.0518,0.0625,0.0791,0.0881,0.1021,0.1173,0.1348,0.1372,0.138,0.1212,0.0869,0.071,0.053,0.0544,0.0459,0.0467,0.0475,0.0486,0.0416,0.0367,0.0367,0.0367,0.0367,0.0367,0,0.036,0.041,0.0473,0.0584,0.0732,0.0801,0.0992,0.1075,0.1236,0.134,0.1407,0.1199,0.1019,0.0834,0.0555,0.0385,0.0409,0.0319,0.0394,0.0407,0.0418,0.043,0.0294,0.0293,0.0292,0.0292,0,0,0.0352,0.0389,0.0434,0.0659,0.0792,0.0964,0.1082,0.1178,0.1246,0.1289,0.127,0.1238,0.1036,0.0796,0.0596,0.0448,0.0465,0.0413,0.0489,0.0615,0.0628,0.0512,0.0545,0,0,0,0,0]}],[{"header":{"parameterUnit":"m.s-1","parameterCategory":2,"la1":30.2991,"la2":30.254,"lo1":-89.0895,"lo2":-89.0444,"dy":0.0017,"dx":0.0017,"nx":28,"ny":28,"refTime":"2025-07-06T09:00:00:Z","depth":"4","parameterNumber":2,"parameterNumberName":"U-component_of_CURRENTS"},"data":[0,0,0,0,0,0,0,0,0,0,0,0,0,0,0,0,0,0,0,0,0,0,0,0,0,0,0,0,0,0,0,0,0,0,0,0,0,0,0,0,0,0,0,0,0,0,0,0,0,0,0,0,0,0,0,0,0,0,0.1049,0.1049,0,0.1135,0.1136,0.1137,0.1217,0.1218,0.1219,0.122,0.1239,0.1239,0.1238,0,0,0,0,0,0,0,0,0,0,0,0,0,0.0998,0.0999,0.1049,0.105,0.105,0.1135,0.1136,0.1137,0.1217,0.1218,0.1219,0.122,0.1239,0.1239,0.1238,0,0,0,0,0,0,0,0,0,0,0,0,0,0.1047,0.0999,0.1048,0.11,0.1105,0.1135,0.1136,0.1138,0.1217,0.1218,0.1219,0.1221,0.1239,0.1239,0.1238,0.1209,0,0,0.1237,0.1237,0,0,0,0,0,0,0,0,0.1044,0.1049,0.1091,0.1096,0.1102,0.1166,0.1126,0.1158,0.1216,0.1175,0.122,0.1221,0.1206,0.1209,0.1225,0.121,0.1211,0.1237,0.1237,0.1236,0.1236,0,0,0,0,0,0,0,0.104,0.1046,0.1084,0.1092,0.1099,0.1134,0.1142,0.1133,0.1182,0.1179,0.1185,0.1192,0.1209,0.1225,0.1226,0.1211,0.1237,0.1237,0.1236,0.1236,0.1288,0.1289,0,0,0,0,0,0,0.1023,0.1042,0.1081,0.1086,0.1074,0.1133,0.1142,0.1145,0.1184,0.1191,0.1191,0.1196,0.1225,0.1226,0.1226,0.1283,0.1236,0.1236,0.1236,0.1286,0.1288,0.129,0,0,0,0,0,0,0.1022,0.1026,0.1078,0.1066,0.1075,0.1132,0.1135,0.1146,0.1187,0.1193,0.12,0.1223,0.1226,0.1227,0.1242,0.1281,0.1236,0.1235,0.1284,0.1287,0.1289,0.1339,0,0,0,0,0,0,0.102,0.1025,0.1036,0.1064,0.1075,0.1107,0.1134,0.1146,0.1187,0.1195,0.1222,0.1225,0.1227,0.1243,0.1242,0.1279,0.1235,0.1282,0.1285,0.1288,0.1335,0.1343,0.1349,0,0,0,0,0,0.1018,0.1025,0.1035,0.1041,0.1083,0.1107,0.1117,0.1163,0.1187,0.1205,0.1228,0.1225,0.1263,0.1243,0.1241,0.128,0.1281,0.1284,0.1288,0.1332,0.1341,0.1349,0,0,0,0,0,0,0.1015,0.1035,0.1047,0.1062,0.1087,0.1121,0.1145,0.1171,0.1206,0.1217,0.1228,0.1231,0.1267,0.126,0.1239,0.1307,0.1278,0.1281,0.1312,0.1321,0.1327,0.131,0.1235,0,0,0,0,0,0.1014,0.1026,0.1047,0.1063,0.1073,0.1111,0.1133,0.1159,0.1185,0.1205,0.1227,0.1252,0.1276,0.1287,0.1301,0.1319,0.1304,0.135,0.1357,0.1363,0.135,0.1361,0.1368,0.1302,0.1302,0.1302,0,0,0.1019,0.1031,0.104,0.1063,0.1087,0.1102,0.1129,0.1161,0.1184,0.1195,0.1242,0.1271,0.1287,0.1324,0.134,0.1325,0.1378,0.1368,0.1373,0.1356,0.1366,0.1372,0.1377,0.1305,0.1304,0.1304,0,0,0.1023,0.1041,0.1049,0.1064,0.1094,0.1113,0.1123,0.1165,0.1199,0.1228,0.1263,0.1298,0.1332,0.1357,0.137,0.1414,0.1414,0.145,0.1469,0.1482,0.1486,0.149,0.1488,0.1492,0.1454,0.1454,0.1454,0,0.1029,0.1036,0.1058,0.1066,0.1076,0.1116,0.1122,0.1159,0.1207,0.1236,0.1246,0.1327,0.1338,0.1389,0.1425,0.1427,0.1441,0.1435,0.1489,0.1492,0.1495,0.1492,0.1495,0.1457,0.1457,0.1457,0.1456,0,0.1026,0.1043,0.1049,0.1066,0.1082,0.1096,0.113,0.1177,0.1217,0.1251,0.1318,0.1342,0.1393,0.142,0.1436,0.1492,0.1499,0.1495,0.1462,0.1505,0.1499,0.1502,0.1461,0.146,0.1459,0.1459,0,0,0.1011,0.104,0.1046,0.1048,0.1079,0.1086,0.1138,0.1186,0.1232,0.1284,0.1339,0.1393,0.1431,0.1449,0.1489,0.1506,0.1546,0.1528,0.1527,0.1516,0.1586,0.148,0.1471,0.1575,0.1575,0.1576,0.1576,0,0.1004,0.1006,0.1028,0.1039,0.1037,0.1089,0.1132,0.1186,0.1242,0.1311,0.1358,0.1421,0.1437,0.1487,0.1506,0.1542,0.1555,0.1546,0.1554,0.1553,0.1445,0.147,0.1578,0.1577,0.1577,0.1578,0.1578,0,0.0991,0.099,0.0992,0.1019,0.1026,0.1056,0.1127,0.1166,0.1273,0.1321,0.1394,0.145,0.151,0.1511,0.1555,0.1565,0.158,0.1588,0.1588,0.1465,0.1449,0.1524,0.1581,0.1581,0.1581,0.1581,0.158,0,0.0947,0.0967,0.0964,0.0969,0.1009,0.1052,0.1093,0.1187,0.1223,0.1347,0.1401,0.147,0.1533,0.1545,0.1577,0.1589,0.1605,0.161,0.1517,0.151,0.1583,0.1578,0.1624,0.1624,0.1624,0.1624,0.1624,0,0.0912,0.0909,0.0957,0.0953,0.0969,0.1021,0.1077,0.1141,0.1237,0.1281,0.141,0.1453,0.1556,0.159,0.1584,0.1545,0.1604,0.1509,0.1499,0.1607,0.1605,0.1585,0.158,0.1624,0.1624,0.1624,0.1624,0,0.0844,0.0881,0.0864,0.0918,0.0948,0.0953,0.1046,0.1067,0.1205,0.1273,0.1321,0.1462,0.1513,0.1567,0.1599,0.1554,0.1517,0.1492,0.1595,0.1593,0.1415,0.1414,0.138,0.1376,0.1373,0.137,0.1368,0,0.0806,0.0801,0.0823,0.0795,0.0821,0.0868,0.0892,0.1028,0.1048,0.1247,0.1243,0.1392,0.1472,0.143,0.1478,0.1449,0.1441,0.1423,0.1421,0.1395,0.1389,0.1393,0.1396,0.1363,0.1362,0.1361,0.136,0,0.0707,0.0722,0.068,0.065,0.0659,0.0682,0.0744,0.0786,0.095,0.1077,0.1182,0.1266,0.1331,0.1361,0.1374,0.1339,0.1427,0.1389,0.1396,0.1394,0.1374,0.1372,0.1379,0.1349,0.135,0.1351,0.1352,0,0.0613,0.0543,0.0501,0.0456,0.0466,0.0503,0.0579,0.065,0.0738,0.0994,0.1007,0.1178,0.1311,0.13,0.1271,0.1266,0.1254,0.1223,0.1239,0.1252,0.1208,0.1163,0.1055,0,0,0,0,0,0.0507,0.0396,0.0316,0.0274,0.0289,0.034,0.0452,0.0545,0.0764,0.0798,0.0925,0.0986,0.1074,0.1121,0.1088,0.1165,0.1218,0.1118,0.118,0.1286,0.1299,0.126,0,0,0,0,0,0,0.0421,0.0309,0.0248,0.015,0.0129,0.0175,0.0286,0.0433,0.0479,0.07,0.0733,0.0893,0.0949,0.1068,0.1054,0.1067,0.1082,0.12,0.1197,0.1279,0.1291,0.1301,0.1265,0,0,0,0,0]},{"header":{"parameterUnit":"m.s-1","parameterCategory":2,"la1":30.2991,"la2":30.254,"lo1":-89.0895,"lo2":-89.0444,"dy":0.0017,"dx":0.0017,"nx":28,"ny":28,"refTime":"2025-07-06T09:00:00:Z","depth":"4","parameterNumber":3,"parameterNumberName":"V-component_of_CURRENTS"},"data":[0,0,0,0,0,0,0,0,0,0,0,0,0,0,0,0,0,0,0,0,0,0,0,0,0,0,0,0,0,0,0,0,0,0,0,0,0,0,0,0,0,0,0,0,0,0,0,0,0,0,0,0,0,0,0,0,0,0,-0.0029,-0.0029,0,-0.0015,-0.0015,-0.0015,0.0009,0.001,0.001,0.001,0.0029,0.003,0.003,0,0,0,0,0,0,0,0,0,0,0,0,0,-0.0032,-0.0032,-0.0029,-0.0029,-0.0029,-0.0015,-0.0015,-0.0015,0.0009,0.001,0.001,0.0011,0.0029,0.0029,0.003,0,0,0,0,0,0,0,0,0,0,0,0,0,-0.0024,-0.0032,-0.0029,-0.0016,-0.0015,-0.0015,-0.0015,-0.0014,0.0009,0.001,0.001,0.0011,0.0029,0.0029,0.003,0.0023,0,0,0.0031,0.0031,0,0,0,0,0,0,0,0,-0.0024,-0.0024,-0.0018,-0.0017,-0.0016,-0.0006,-0.0009,-0.0002,0.0009,0.0002,0.001,0.0011,0.0017,0.0018,0.0022,0.0024,0.0024,0.0031,0.0031,0.0031,0.0031,0,0,0,0,0,0,0,-0.0025,-0.0024,-0.0022,-0.0018,-0.0017,-0.0011,-0.0009,-0.0008,0.0008,0.0003,0.0004,0.0003,0.0018,0.0022,0.0023,0.0025,0.0031,0.0031,0.0031,0.0031,0.0033,0.0032,0,0,0,0,0,0,-0.0031,-0.0025,-0.0022,-0.0021,-0.0021,-0.0011,-0.0009,-0.0008,0.0008,0.001,0.0002,0.0004,0.0021,0.0022,0.0023,0.0031,0.0031,0.0031,0.0032,0.0033,0.0033,0.0032,0,0,0,0,0,0,-0.0031,-0.003,-0.0023,-0.0024,-0.0023,-0.0012,-0.0011,-0.0008,-0.0004,0.0007,0.001,0.0004,0.0021,0.0023,0.0027,0.0032,0.0032,0.0032,0.0033,0.0033,0.0032,0.0037,0,0,0,0,0,0,-0.0031,-0.003,-0.003,-0.0025,-0.0023,-0.0022,-0.0011,-0.0008,-0.0006,-0.0004,0.0009,0.0012,0.0022,0.0026,0.0027,0.0032,0.0032,0.0033,0.0033,0.0033,0.0037,0.0037,0.0037,0,0,0,0,0,-0.0031,-0.0032,-0.003,-0.003,-0.0023,-0.0022,-0.002,-0.001,-0.0007,-0.0004,0.0004,0.0011,0.0025,0.0026,0.0027,0.0033,0.0033,0.0033,0.0033,0.0037,0.0037,0.0037,0,0,0,0,0,0,-0.0034,-0.003,-0.0027,-0.0027,-0.0025,-0.0018,-0.0017,-0.0013,-0.0005,-0.0003,0.0008,0.0011,0.0015,0.0019,0.0021,0.0031,0.003,0.003,0.0033,0.0033,0.0033,0.0035,0.0032,0,0,0,0,0,-0.0035,-0.0034,-0.0031,-0.0032,-0.0031,-0.0026,-0.0024,-0.0019,-0.0013,-0.0008,-0.0001,0.0007,0.0014,0.002,0.0024,0.0029,0.0025,0.0032,0.0032,0.0032,0.0033,0.0017,0.0016,0.0031,0.0031,0.0031,0,0,-0.0038,-0.0035,-0.0035,-0.0032,-0.0029,-0.0025,-0.0023,-0.0022,-0.0014,-0.0009,0.0001,0.0003,0.0013,0.0021,0.0024,0.0027,0.0028,0.0032,0.0032,0.0033,0.0017,0.0015,0.0014,0.0031,0.0031,0.0031,0,0,-0.0039,-0.0039,-0.0036,-0.0035,-0.0033,-0.0028,-0.0029,-0.0025,-0.0018,-0.0015,-0.0006,-0.0005,0.0005,0.0016,0.0022,0.002,0.0023,0.0024,0.0031,0.0016,0.0015,0.0013,0.0016,0.0015,0.0029,0.0029,0.0029,0,-0.0043,-0.0035,-0.0036,-0.0034,-0.0028,-0.0029,-0.0022,-0.0019,-0.0013,-0.0004,-0.0012,0.0002,0.0002,0.0022,0.0022,0.002,0.0019,0.0033,0.0016,0.0014,0.0013,0.0016,0.0015,0.0029,0.0029,0.0029,0.0029,0,-0.004,-0.0034,-0.0034,-0.0026,-0.0022,-0.0018,-0.0013,-0.0005,-0.0003,-0.0,0.001,0.0006,0.002,0.0016,0.0018,0.0018,0.0023,0.0013,0.0017,0.0012,0.0015,0.0014,0.003,0.003,0.003,0.003,0,0,-0.0044,-0.0033,-0.0032,-0.0016,-0.0015,-0.0004,0.0005,0.0022,0.004,0.0028,0.0052,0.004,0.0036,0.0042,0.0044,0.0026,0.001,0.0017,0.0016,0.0022,-0.0009,-0.0014,-0.0016,-0.0002,-0.0002,-0.0003,0.0001,0,-0.0038,-0.0022,-0.0021,0.0003,0.0017,0.0025,0.0041,0.0053,0.0056,0.0076,0.0066,0.0082,0.0049,0.0064,0.0036,0.0021,0.0005,0.0011,-0.0007,-0.0007,-0.001,-0.0019,-0.0004,-0.0,-0.0,-0.0001,-0.0001,0,-0.003,-0.0016,0.0004,0.0042,0.0049,0.0061,0.01,0.0115,0.0132,0.0131,0.013,0.013,0.0121,0.0088,0.0042,0.005,0.0019,-0.0005,-0.0005,-0.0013,-0.0015,0.0003,-0.0004,-0.0003,-0.0003,-0.0003,-0.0003,0,-0.0013,0.0009,0.0033,0.004,0.0071,0.0092,0.0115,0.0133,0.0162,0.0175,0.0194,0.017,0.0185,0.0121,0.0066,0.0059,0.0011,-0.0,-0.0032,-0.0032,-0.0029,-0.0028,-0.004,-0.004,-0.004,-0.004,-0.004,0,0.0,0.0022,0.0046,0.006,0.0108,0.0119,0.017,0.0183,0.0213,0.0253,0.0229,0.025,0.0191,0.0163,0.0087,0.0023,0.0026,-0.0032,-0.0036,-0.0026,-0.0024,-0.003,-0.0029,-0.004,-0.004,-0.004,-0.004,0,0.0016,0.0023,0.0063,0.01,0.0118,0.0156,0.0217,0.0257,0.0267,0.0322,0.0336,0.0328,0.0282,0.0213,0.0133,0.0073,-0.0003,-0.0026,0.0006,0.0004,-0.0036,-0.0035,-0.0052,-0.0052,-0.0053,-0.0053,-0.0053,0,0.0026,0.0043,0.0098,0.014,0.0159,0.0216,0.0262,0.0283,0.0313,0.0362,0.0386,0.0384,0.0362,0.0253,0.0155,0.0028,0.0001,-0.0022,-0.0051,-0.0037,-0.004,-0.0038,-0.0037,-0.0053,-0.0053,-0.0053,-0.0054,0,0.0049,0.0065,0.0103,0.0188,0.024,0.0304,0.0356,0.0374,0.0406,0.0424,0.0446,0.0411,0.0369,0.0266,0.0178,0.0074,-0.0004,-0.0025,-0.0026,-0.0053,-0.0039,-0.0041,-0.0039,-0.0054,-0.0054,-0.0054,-0.0054,0,0.0074,0.0108,0.0163,0.0239,0.0313,0.0371,0.0391,0.0429,0.0454,0.0479,0.0485,0.0439,0.0419,0.029,0.0191,0.0104,0.0076,0.0047,0.0042,0.0041,0.0053,0.0083,0.0102,0,0,0,0,0,0.0098,0.0141,0.0221,0.0292,0.0367,0.0405,0.0454,0.0461,0.0467,0.0493,0.0489,0.0444,0.0341,0.0288,0.0201,0.0163,0.0043,0.0056,0.0003,-0.0058,-0.0058,-0.0063,0,0,0,0,0,0,0.0118,0.018,0.022,0.032,0.038,0.045,0.0478,0.0485,0.048,0.0486,0.0424,0.0421,0.0301,0.0394,0.0201,0.0175,0.0128,0.0008,0.0006,-0.0059,-0.0058,-0.0057,-0.0063,0,0,0,0,0]}]]